This demonstration page uses our WeatherBlox Daily Observations layout. Learn more.

Left ArrowRight Arrow

41.86663, -103.66717

Hourly Observations for November 25, 2016

Temp ( °F °C ) Dew Point ( °F °C ) Humidity (%) Winds ( mph kmh ) Pressure ( in mb ) Visibility ( mi km ) Precip ( " mm )
12:53 am 00:53 Clear 17 -8.3 12 -11.1 80 80 NNE 6 9 30.40 1030 10 16 N/A
1:53 am 01:53 Clear 18 -7.8 12 -11.1 77 77 ENE 3 6 30.40 1029 10 16 N/A
2:53 am 02:53 Clear 19 -7.2 13 -10.6 77 77 NE 5 7 30.40 1030 10 16 N/A
3:53 am 03:53 Clear 20 -6.7 12 -11.1 71 71 N N/A 30.40 1030 10 16 N/A
4:53 am 04:53 Clear 19 -7.2 11 -11.7 71 71 N 3 6 30.42 1030 10 16 N/A
5:53 am 05:53 Clear 18 -7.8 12 -11.1 77 77 NNE 6 9 30.42 1030 10 16 N/A
6:53 am 06:53 Clear 15 -9.4 10 -12.2 80 80 NNW 7 11 30.45 1031 10 16 N/A
7:53 am 07:53 Sunny 21 -6.1 15 -9.4 78 78 NNW 5 7 30.45 1031 10 16 N/A
8:53 am 08:53 Sunny 28 -2.2 20 -6.7 72 72 NNW 5 7 30.42 1030 10 16 N/A
9:53 am 09:53 Sunny 38 3.3 22 -5.6 52 52 N N/A 30.38 1029 10 16 N/A
10:53 am 10:53 Sunny 44 6.7 19 -7.2 37 37 N N/A 30.34 1027 10 16 N/A
11:53 am 11:53 Sunny 48 8.9 17 -8.3 29 29 N N/A 30.29 1026 10 16 N/A
12:53 pm 12:53 Sunny 53 11.7 15 -9.4 22 22 N N/A 30.25 1025 10 16 N/A
1:53 pm 13:53 Sunny 55 12.8 17 -8.3 22 22 N N/A 30.22 1024 10 16 N/A
2:53 pm 14:53 Sunny 55 12.8 18 -7.8 23 23 E 3 6 30.21 1023 10 16 N/A
3:53 pm 15:53 Sunny 52 11.1 22 -5.6 31 31 N N/A 30.22 1023 10 16 N/A
4:53 pm 16:53 Clear 37 2.8 20 -6.7 50 50 N 6 9 30.26 1025 10 16 N/A
5:53 pm 17:53 Clear 33 0.6 19 -7.2 56 56 N N/A 30.27 1025 10 16 N/A
6:53 pm 18:53 Clear 29 -1.7 18 -7.8 63 63 N 7 11 30.30 1026 10 16 N/A
7:53 pm 19:53 Clear 24 -4.4 17 -8.3 75 75 NNW 7 11 30.29 1026 10 16 N/A
8:53 pm 20:53 Clear 25 -3.9 17 -8.3 72 72 NW 8 13 30.27 1025 10 16 N/A
9:53 pm 21:53 Clear 23 -5 16 -9 74 74 N N/A 30.33 1027 10 16 N/A
10:53 pm 22:53 Clear 21 -6.1 14 -10 74 74 N 6 9 30.22 1023 10 16 N/A
11:53 pm 23:53 Clear 26 -3.3 17 -8.3 69 69 N 3 6 30.19 1022 10 16 N/A

Powered by AerisWeather